CAPE
0 0 0 0 0 2 19 1 27 32 29 74 105 151 505 590 365 364 613 925 818 850 918 1144 1385 1673 1948 2218 2668 2785 2963 3422 3314 3177 3094 3571 2711 3061 2549 3054 2537 2265 2457 2284
0 0 0 0 0 0 0 0 22 25 43 31 40 314 199 323 413 311 338 567 544 601 742 1229 1510 1705 1825 2088 2387 2806 3002 3526 3441 3187 3230 3237 2746 1774 1444 1770 1978 2103 1513 1952
0 0 0 0 0 0 0 0 1 19 16 7 93 106 409 186 250 321 241 331 407 527 530 865 1288 1415 1484 2084 2655 2875 3153 3324 3700 3595 3351 2464 2056 1953 1029 697 676 991 866 645
0 0 0 0 0 0 0 0 0 2 37 54 8 67 484 599 194 130 308 323 371 410 372 422 649 948 1093 1682 2345 3003 3422 3762 2941 1998 1253 1265 576 188 589 230 150 492 282 464
0 0 0 0 0 0 3 0 0 0 10 25 48 67 291 29 670 430 161 329 510 557 542 532 276 688 849 1559 2092 2950 3257 2052 1430 948 545 170 135 0 0 0 84 457 933 383
0 0 0 0 0 0 0 0 1 6 22 67 101 50 117 540 940 868 500 160 276 575 617 746 589 780 1104 1691 2229 2582 1938 1614 1072 524 372 250 160 121 28 111 121 40 6 71
0 0 0 0 0 0 0 2 11 23 53 73 16 41 96 17 139 42 346 442 339 380 569 823 935 1218 1663 1789 2003 1436 1542 1436 1029 368 60 8 101 171 273 327 32 188 5 10
0 0 0 0 0 0 0 1 16 22 40 49 8 0 0 0 21 87 162 307 580 803 749 828 1188 1524 1936 1754 1642 825 1439 1543 975 289 403 449 407 47 45 68 199 35 6 6
0 0 0 0 0 0 0 0 1 3 7 8 25 29 7 24 17 68 92 207 840 947 1074 962 1181 1945 1759 1705 1301 889 1368 1489 733 306 861 727 510 409 332 338 355 86 200 73
10 9 0 0 0 0 3 0 0 1 0 35 30 18 17 44 2 0 54 140 372 1124 1318 1016 1080 1948 1623 1625 888 645 886 1047 678 485 584 102 30 187 320 296 324 335 340 328
0 3 5 0 0 0 0 1 14 27 36 51 41 46 21 6 0 3 7 25 289 938 1436 950 1153 1557 1553 1310 739 365 679 780 740 620 499 187 87 97 179 149 125 274 384 427
0 0 1 3 0 0 2 2 9 35 50 26 31 29 2 2 5 28 15 22 162 1185 1615 1104 1285 1441 1418 950 688 326 315 433 501 383 366 160 208 233 136 157 136 187 214 334
0 0 5 6 20 0 0 2 26 35 53 140 112 82 30 3 15 36 41 26 219 1067 1623 1265 1324 1575 1647 926 1233 371 177 172 210 292 335 223 300 334 385 384 213 159 136 311
0 0 0 2 3 25 4 1 3 15 107 114 133 104 93 71 60 33 32 42 123 737 1515 1412 1192 1641 2185 1499 1569 637 275 144 120 125 32 118 301 569 546 516 350 447 516 568
0 5 0 0 0 50 25 16 9 44 36 61 78 22 52 33 5 11 0 7 56 459 1185 1681 974 1432 2489 1748 1856 827 383 300 151 175 184 270 411 637 764 679 617 552 533 479
0 11 0 7 17 5 44 53 60 48 54 46 50 82 59 2 0 0 0 0 0 58 761 1454 1371 1110 1757 1447 1123 815 492 424 522 523 445 405 435 606 787 800 701 666 618 737
144 83 94 60 68 50 70 46 57 82 108 77 107 104 67 1 0 0 0 0 2 0 302 970 1504 1929 2097 1257 1503 832 606 554 495 718 721 624 688 901 945 659 573 581 830 1328
320 332 200 200 165 170 83 80 84 95 115 135 103 81 18 0 0 0 1 31 129 102 67 718 1246 1574 1423 1314 1077 779 451 1004 953 869 873 826 842 914 942 880 862 1101 1023 1367
76 362 323 279 190 196 127 119 70 120 169 170 106 50 26 0 0 0 1 116 335 428 457 671 1148 1405 1696 1340 1068 990 489 683 719 934 1011 1014 897 1010 1083 1097 1251 1320 1276 875
112 213 312 311 241 170 91 126 93 85 117 119 145 94 4 0 9 400 265 292 478 686 894 1080 1213 1371 1424 1219 214 795 705 985 993 1278 1002 951 905 998 1066 1333 1206 1216 1490 744
327 228 163 111 196 209 181 267 51 221 345 110 29 1 0 32 63 513 347 433 626 847 1185 1327 1341 1350 1997 1238 1062 1562 1452 1436 1462 962 882 1365 1162 1714 1409 1438 905 1315 1182 1236
439 276 137 146 259 260 322 181 214 545 226 148 98 71 24 45 77 197 481 570 698 990 1169 1261 1269 1279 1096 1468 1785 1673 2494 2307 1774 1722 1282 1519 1967 1083 523 1766 1580 1385 1321 1197
287 361 527 618 446 668 359 416 198 174 172 115 88 102 116 103 78 255 444 889 897 1011 1130 1130 1104 1364 1259 1443 1401 1813 2473 2118 1927 2196 2406 1939 1573 891 800 1647 1751 1085 1471 1176
225 204 234 449 518 246 60 76 109 109 132 119 143 199 282 245 370 537 760 1071 1136 1081 1040 967 1008 1034 1325 1548 1827 2107 2072 2001 2278 2383 1928 1926 2039 1712 1478 1633 1005 807 584 343
296 142 185 232 436 197 288 0 4 35 105 142 214 310 384 500 448 831 1110 1341 1260 1223 1165 1109 1095 1071 1236 1519 1525 1650 1836 2153 2023 1626 1259 1037 852 1194 1218 1271 419 417 0 12
168 187 146 369 22 82 95 0 2 21 89 130 211 496 693 888 991 915 1072 903 976 1036 810 1279 1276 659 1288 1304 1405 1363 1320 1348 1377 1188 1034 692 597 514 366 374 57 0 0 0
CIN
-0 -0 -0 -0 -0 -0 -0 -0 -1 -0 -1 -62 -5 -0 -13 -8 -9 -18 -18 -17 -4 -0 -1 -0 -0 -0 -0 -0 -0 -0 -0 -0 -0 -0 -0 -0 -0 -0 -0 -3 -0 -0 -0 -0
-0 -0 -0 -0 -0 -0 -0 -0 -0 -0 -2 -1 -22 -0 -1 -9 -5 -13 -26 -32 -29 -18 -4 -0 -0 -0 -0 -0 -0 -0 -0 -0 -0 -0 -0 -0 -0 -0 -0 -0 -0 -0 -0 -2
-0 -0 -0 -0 -0 -0 -0 -0 -0 -0 -0 -0 -4 -5 -0 -7 -15 -18 -22 -34 -27 -38 -33 -18 -5 -0 -0 -0 -0 -0 -0 -0 -0 -0 -0 -0 -0 -4 -6 -12 -9 -2 -2 -0
-0 -0 -0 -0 -0 -0 -0 -0 -0 -0 -0 -0 -0 -4 -0 -0 -14 -20 -26 -31 -30 -36 -42 -48 -26 -7 -0 -0 -0 -0 -0 -0 -0 -2 -5 -5 -28 -61 -24 -94 -86 -16 -38 -8
-0 -0 -0 -0 -0 -0 -1 -0 -0 -0 -0 -0 -3 -0 -10 -88 -0 -13 -28 -17 -5 -24 -35 -25 -59 -18 -0 -1 -0 -0 -0 -21 -29 -44 -60 -193 -202 -0 -0 -0 -188 -37 -4 -21
-0 -0 -0 -0 -0 -0 -0 -0 -0 -0 -0 -0 -0 -14 -0 -18 -1 -0 -0 -16 -28 -12 -27 -10 -19 -15 -1 -5 -0 -1 -38 -49 -58 -88 -111 -171 -219 -228 -82 -151 -174 -201 -180 -188
-0 -0 -0 -0 -0 -0 -0 -0 -0 -0 -0 -0 -4 -0 -0 -8 -1 -1 -0 -0 -12 -31 -21 -10 -2 -4 -1 -5 -3 -27 -52 -60 -72 -124 -295 -380 -254 -195 -116 -66 -199 -107 -93 -0
-0 -0 -0 -0 -0 -0 -0 -0 -0 -0 -0 -0 -2 -0 -0 -0 -5 -4 -3 -0 -0 -7 -6 -5 -0 -1 -1 -4 -25 -59 -52 -54 -78 -161 -104 -77 -71 -258 -142 -192 -86 -136 -175 -0
-0 -0 -0 -0 -0 -0 -0 -0 -0 -0 -1 -0 -0 -0 -1 -5 -11 -10 -6 -7 -0 -1 -6 -2 -0 -1 -2 -5 -54 -79 -56 -58 -97 -142 -41 -34 -38 -36 -51 -53 -29 -132 -76 -129
-0 -0 -0 -0 -0 -0 -0 -0 -0 -0 -0 -0 -0 -1 -0 -3 -2 -0 -18 -24 -10 -0 -0 -7 -1 -0 -4 -7 -82 -109 -89 -82 -105 -105 -62 -200 -256 -128 -43 -55 -36 -29 -28 -28
-0 -0 -1 -0 -0 -0 -0 -0 -0 -0 -0 -1 -0 -0 -0 -1 -0 -0 -0 -32 -19 -0 -0 -9 -0 -0 -9 -23 -85 -126 -101 -90 -97 -96 -85 -134 -172 -146 -83 -88 -110 -40 -14 -7
-0 -0 -1 -0 -0 -0 -0 -0 -0 -0 -1 -0 -0 -1 -9 -0 -0 -1 -15 -7 -17 -0 -0 -18 -0 -1 -14 -62 -85 -121 -125 -103 -101 -113 -93 -122 -93 -55 -60 -62 -67 -40 -34 -8
-0 -0 -0 -0 -0 -0 -0 -0 -0 -0 -0 -0 -4 -0 -18 -2 -9 -14 -10 -2 -2 -0 -5 -11 -0 -0 -9 -78 -47 -120 -125 -96 -98 -107 -96 -102 -80 -29 -2 -4 -16 -24 -28 -4
-0 -0 -0 -0 -0 -0 -0 -0 -0 -0 -0 -0 -0 -3 -5 -5 -1 -16 -15 -30 -12 -1 -0 -9 -13 -0 -4 -37 -37 -106 -126 -96 -100 -108 -129 -88 -50 -3 -0 -0 -0 -0 -0 -0
-0 -0 -0 -0 -0 -1 -0 -0 -0 -0 -0 -1 -0 -18 -1 -2 -9 -32 -0 -15 -43 -5 -1 -0 -23 -14 -2 -22 -20 -99 -125 -117 -101 -88 -91 -67 -32 -1 -0 -0 -0 -0 -0 -0
-0 -0 -0 -0 -0 -0 -0 -1 -0 -0 -0 -0 -0 -4 -25 -4 -0 -0 -0 -0 -0 -69 -4 -2 -11 -25 -14 -40 -67 -101 -117 -97 -93 -88 -74 -48 -17 -3 -0 -0 -0 -0 -0 -0
-1 -0 -0 -0 -0 -0 -0 -0 -0 -0 -1 -0 -1 -3 -16 -11 -0 -0 -0 -0 -42 -0 -32 -19 -16 -12 -4 -40 -30 -84 -98 -86 -89 -61 -41 -19 -15 -2 -0 -0 -0 -0 -0 -0
-1 -1 -0 -0 -0 -0 -1 -1 -1 -0 -1 -2 -2 -7 -16 -0 -0 -0 -80 -102 -75 -78 -81 -25 -31 -18 -17 -24 -33 -65 -80 -59 -55 -47 -31 -22 -19 -2 -0 -0 -0 -0 -0 -0
-14 -2 -0 -0 -0 -1 -4 -8 -10 -2 -1 -0 -5 -7 -1 -0 -0 -0 -8 -63 -42 -43 -34 -24 -29 -15 -2 -14 -23 -47 -57 -52 -64 -48 -35 -22 -16 -0 -0 -0 -0 -0 -0 -0
-15 -19 -7 -0 -1 -0 -7 -11 -11 -3 -0 -2 -1 -0 -7 -0 -2 -8 -33 -33 -37 -40 -34 -40 -39 -9 -23 -31 -65 -35 -48 -43 -36 -30 -26 -14 -4 -0 -0 -0 -0 -0 -0 -0
-9 -20 -2 -0 -0 -1 -2 -10 -33 -0 -2 -3 -6 -4 -0 -0 -4 -7 -26 -28 -22 -23 -15 -25 -28 -33 -18 -21 -13 -6 -16 -18 -18 -24 -13 -0 -0 -0 -0 -0 -105 -1 -0 -0
-4 -0 -0 -0 -0 -0 -12 -6 -0 -44 -28 -30 -24 -28 -25 -28 -5 -0 -1 -4 -11 -13 -14 -15 -23 -16 -17 -11 -4 -10 -1 -4 -3 -3 -0 -0 -0 -1 -1 -5 -6 -0 -0 -0
-1 -6 -6 -12 -81 -23 -26 -43 -68 -39 -66 -78 -71 -54 -39 -43 -24 -1 -0 -0 -5 -11 -7 -8 -6 -12 -8 -0 -14 -23 -6 -15 -11 -0 -0 -0 -1 -0 -7 -1 -0 -0 -0 -1
-32 -37 -11 -7 -8 -41 -84 -22 -75 -89 -75 -81 -55 -37 -23 -19 -21 -0 -2 -1 -0 -3 -6 -4 -1 -1 -1 -2 -18 -21 -24 -7 -0 -0 -0 -0 -0 -0 -0 -3 -0 -2 -9 -47
-5 -3 -4 -3 -1 -67 -32 -0 -63 -112 -71 -48 -38 -26 -23 -13 -2 -0 -0 -0 -0 -1 -2 -18 -11 -8 -17 -37 -25 -19 -3 -0 -2 -0 -0 -0 -0 -3 -4 -1 -0 -19 -0 -40
-1 -2 -0 -2 -90 -108 -92 -0 -146 -116 -54 -41 -23 -4 -5 -1 -0 -2 -1 -18 -13 -35 -29 -31 -32 -13 -40 -43 -36 -23 -12 -5 -0 -0 -0 -3 -1 -1 -0 -73 -28 -0 -0 -0
Wind_Speed
19 15 16 18 18 17 13 14 14 8 14 12 6 16 16 14 14 15 16 16 14 13 15 13 11 9 10 8 9 8 6 5 5 5 4 4 5 5 6 4 9 7 7 8
19 20 18 15 12 15 9 13 11 11 9 8 5 14 15 16 14 15 15 16 17 16 17 16 13 12 11 9 9 9 7 7 6 5 2 3 5 4 4 6 5 7 5 2
19 21 19 15 14 12 15 17 14 8 11 13 13 13 16 16 16 14 16 16 17 18 19 17 15 13 12 11 10 9 8 6 4 4 6 6 6 8 8 2 3 3 6 6
16 16 19 16 16 16 18 15 11 10 9 14 17 12 18 17 17 19 18 19 17 17 17 18 18 16 13 11 10 9 8 6 4 2 0 3 6 6 6 5 5 7 8 7
20 16 15 18 18 19 5 13 9 15 13 16 14 14 17 8 18 21 20 19 19 18 18 18 18 18 15 13 11 10 8 6 5 3 3 3 3 4 3 3 4 6 7 5
18 12 18 18 17 14 12 9 8 11 11 14 15 10 12 19 27 24 22 22 21 20 19 17 17 18 15 13 12 11 10 8 6 4 4 2 3 3 5 5 6 6 5 4
20 22 24 16 15 12 13 12 9 10 12 13 6 12 6 7 9 7 21 23 23 21 20 18 18 18 16 16 14 12 11 9 7 6 3 2 2 4 5 5 6 5 5 4
15 19 20 13 14 11 15 14 12 8 10 11 9 8 12 9 9 7 9 22 20 21 19 20 19 18 17 16 15 13 12 10 8 6 4 1 3 5 4 3 5 6 6 6
18 19 20 21 20 19 16 17 17 13 5 10 4 12 10 10 7 4 8 11 21 22 19 20 20 19 18 17 16 14 13 10 9 7 5 3 4 4 6 5 5 7 3 6
13 14 26 21 21 14 9 10 11 7 8 10 9 5 5 10 9 9 9 11 13 21 21 19 19 19 18 17 15 14 13 11 9 7 5 4 3 4 4 5 6 6 7 7
17 11 18 18 14 15 13 11 13 13 7 7 6 4 15 6 7 4 6 6 11 17 19 19 19 20 18 17 16 15 13 12 9 7 5 3 4 5 4 6 6 6 7 7
19 9 14 20 19 21 20 22 17 11 11 8 10 3 6 6 6 4 2 4 9 13 18 20 20 20 19 18 17 16 14 12 10 8 5 5 5 5 5 6 7 7 8 8
18 15 13 18 19 13 15 18 21 21 15 18 9 4 8 4 1 2 7 7 11 13 18 19 19 20 19 19 16 16 14 13 11 9 7 6 6 6 6 6 6 7 8 9
9 18 16 15 20 16 20 20 18 20 13 11 17 6 14 11 5 2 7 8 10 14 18 19 18 20 19 17 15 14 13 11 10 6 6 6 6 7 7 7 6 7 8 9
15 14 17 21 24 21 20 22 22 22 18 18 14 8 10 8 8 7 10 11 8 12 16 19 20 17 17 17 15 14 12 10 6 7 7 6 6 7 8 7 8 8 9 9
15 14 17 20 20 22 20 19 23 22 20 18 19 15 5 3 3 8 10 11 13 14 15 16 19 18 19 18 17 16 13 11 10 8 7 7 6 7 8 8 8 8 9 9
14 14 14 18 19 21 16 15 19 19 18 15 17 8 8 7 11 10 10 11 11 14 11 16 18 17 17 18 16 16 13 11 11 10 8 8 8 8 8 8 7 8 9 10
9 11 12 13 17 21 12 12 12 18 13 8 9 8 4 8 9 9 8 11 11 13 13 14 15 17 18 18 18 14 13 11 10 10 10 10 9 9 8 8 9 8 8 8
5 9 11 14 14 10 11 5 12 12 13 8 6 7 6 10 6 15 7 2 4 8 9 11 14 17 17 17 15 13 12 12 12 12 12 11 10 10 9 9 8 8 7 8
12 9 12 13 17 19 17 3 3 8 11 11 11 6 5 9 9 10 5 4 5 4 6 9 13 16 16 16 16 13 12 12 12 13 12 11 10 9 9 9 7 6 8 9
14 11 15 14 16 16 11 17 24 20 4 8 6 1 4 7 6 3 4 5 6 7 10 12 14 14 14 13 11 11 12 13 14 13 12 10 9 8 8 7 4 12 8 8
8 15 15 15 18 19 5 12 14 7 4 9 7 5 7 11 11 8 7 8 9 12 12 14 13 13 13 11 8 8 9 9 9 10 11 9 7 7 7 6 7 8 7 8
15 6 6 7 6 10 12 10 8 7 6 6 9 11 12 14 17 16 11 11 11 13 13 13 12 11 9 8 5 7 7 8 10 10 10 9 5 8 7 9 6 6 10 5
12 3 5 6 10 9 5 8 10 9 9 10 10 11 13 15 16 17 6 8 9 10 11 11 11 9 7 3 4 6 7 8 10 10 5 7 8 9 7 5 6 8 5 7
5 1 5 10 5 0 11 10 10 8 7 8 9 10 12 14 14 11 6 5 5 5 6 5 3 5 5 4 1 3 3 3 6 7 7 7 7 7 5 5 5 6 8 6
7 6 6 4 8 7 9 9 9 10 9 10 9 9 8 9 8 8 8 7 8 8 5 4 7 2 5 6 5 4 1 4 5 6 8 7 5 6 8 8 8 14 11 8
Wind_Direction
203 213 212 197 216 225 185 236 214 168 158 189 210 138 155 178 168 169 167 171 175 174 152 157 159 167 164 173 161 168 157 172 189 203 215 223 234 233 252 250 263 262 265 273
189 218 210 202 221 247 264 214 233 160 146 242 171 152 165 182 187 174 170 179 171 171 162 160 171 175 176 171 164 166 173 176 205 184 226 248 246 252 258 221 215 237 259 349
204 207 229 216 215 224 231 251 219 182 179 238 155 222 164 189 190 185 180 184 176 174 170 173 181 183 177 161 168 163 176 174 199 229 201 201 223 217 228 249 323 60 329 300
227 212 205 212 220 212 222 228 225 211 206 215 214 246 170 185 205 192 196 185 188 182 184 180 179 183 183 159 163 147 167 154 160 203 66 53 300 294 5 300 349 334 294 313
214 187 185 202 209 199 254 175 218 252 212 268 164 245 165 216 204 204 205 200 193 188 191 186 183 173 176 156 165 160 142 155 129 142 318 290 286 327 327 330 316 280 249 263
216 188 198 201 211 193 129 191 201 234 248 229 217 238 181 193 207 199 198 208 200 192 191 191 182 164 163 165 162 152 158 157 159 187 188 263 291 312 309 346 307 281 317 299
226 192 199 219 182 147 202 193 206 215 219 241 206 232 241 330 168 238 191 199 199 201 194 194 183 163 162 175 167 163 164 166 175 188 192 266 291 295 276 268 297 343 288 313
199 186 201 194 196 177 220 210 236 179 234 225 119 236 260 250 354 158 270 189 200 194 200 194 189 166 175 177 172 167 169 175 183 187 187 195 281 287 288 254 344 302 333 319
196 197 187 196 211 190 189 233 242 287 194 273 226 198 191 159 184 228 223 236 190 191 199 199 188 170 182 184 180 170 174 176 185 185 187 214 244 268 317 319 297 278 322 289
194 209 185 202 207 207 278 188 231 240 269 243 241 213 269 147 207 203 207 225 239 189 186 203 194 176 185 186 181 178 174 177 185 199 203 236 238 231 243 266 269 289 291 288
260 246 172 196 208 196 208 236 236 262 251 287 260 231 113 127 142 195 211 214 217 212 180 203 194 183 186 188 182 184 178 177 187 198 221 245 253 229 222 253 266 274 281 284
229 233 242 184 203 225 229 204 228 238 223 256 293 310 92 127 138 144 309 192 211 205 188 204 193 186 186 192 187 190 185 182 191 204 197 222 225 232 252 258 276 288 287 288
211 232 230 238 206 216 248 245 217 216 230 198 238 191 103 95 134 333 312 275 184 211 193 203 199 187 189 194 192 192 191 186 198 186 197 213 222 233 241 261 272 284 290 289
242 234 229 246 227 204 208 239 251 261 236 240 213 223 174 191 160 302 259 234 268 194 204 202 205 194 190 190 187 198 193 195 194 203 204 216 213 228 245 258 267 271 281 295
228 233 242 238 258 220 222 211 223 241 250 269 277 167 274 29 355 336 301 288 252 241 217 202 204 197 181 182 182 195 191 193 219 187 209 225 218 226 246 256 268 278 287 291
209 232 236 248 252 243 242 227 221 218 229 251 264 274 354 322 342 295 279 272 255 233 228 228 203 200 182 185 185 192 187 187 192 204 216 231 235 236 250 261 262 275 288 287
200 235 231 238 236 247 241 245 254 252 233 238 263 288 32 340 307 301 294 282 272 268 228 214 209 205 174 185 187 187 185 189 192 200 214 226 227 232 242 258 269 284 283 283
190 220 250 244 235 237 233 238 283 250 243 221 248 292 323 302 287 292 276 268 266 266 233 208 209 200 177 188 187 186 183 189 194 203 215 221 225 233 238 244 255 266 264 283
231 272 231 254 251 213 219 185 228 243 254 222 232 268 291 293 320 273 217 231 262 256 243 206 197 188 173 186 179 181 195 189 200 212 216 218 224 230 236 245 251 255 266 278
261 210 269 250 266 244 278 271 17 336 240 222 201 179 261 287 287 78 107 146 135 155 177 179 175 165 167 193 176 189 197 207 213 215 220 221 226 231 240 249 276 279 270 259
211 231 239 235 256 261 300 131 186 213 193 32 45 57 287 271 306 63 147 152 145 153 159 168 163 169 183 182 195 187 207 214 218 221 223 220 225 227 248 252 84 262 257 274
218 209 219 246 253 246 133 159 219 51 40 31 18 347 331 315 285 237 209 188 173 159 164 173 176 181 174 183 197 231 235 227 226 230 234 235 214 228 237 240 226 242 255 261
213 354 9 359 51 47 43 88 51 3 5 356 330 308 301 289 278 270 194 199 198 178 177 184 177 176 187 178 209 249 254 258 248 241 224 237 241 236 252 257 244 254 239 268
300 1 284 304 115 66 42 57 26 17 360 338 316 300 288 270 272 268 191 188 198 181 180 183 182 185 186 187 221 237 259 255 244 236 225 246 245 244 258 291 261 247 273 209
40 306 267 259 212 217 92 38 2 2 353 333 319 299 285 272 252 236 159 174 150 143 122 135 146 174 123 73 144 221 223 191 229 219 220 226 234 217 233 171 359 339 49 17
278 291 271 5 37 337 57 359 4 7 353 334 322 316 292 274 234 132 142 162 146 129 127 107 102 80 97 136 128 106 130 203 237 234 222 239 283 317 300 123 115 53 60 62